Simultaneous Nadir Overpasses (SNOs) Predictions

Prediction of SNOs between AQUA and METOP-A Satellite Orbit:

Table of predicted SNOs for the next 14.0 days since TLE Epoch: 11/3/2017
Index Date (AQUA) Time (AQUA) Lat,Lon (AQUA) SZA (AQUA ) Date (METOP-A) Time (METOP-A) Lat,Lon (METOP-A) SZA (METOP-A ) Distance(km) Time Diff (sec)
1 11/05/2017 04:23:15 -74.00, -72.02 90.37 11/05/2017 04:22:30 -74.01, -71.97 90.34 2.53 45
2 11/05/2017 05:12:43 74.04, 95.52 89.70 11/05/2017 05:13:09 74.06, 95.48 89.72 2.57 26
3 11/07/2017 23:57:30 -74.00, -5.58 89.53 11/07/2017 23:56:49 -74.01, -5.57 89.51 1.46 41
4 11/08/2017 00:46:58 74.05, 161.94 90.54 11/08/2017 00:47:28 74.05, 161.86 90.54 2.52 30
5 11/10/2017 19:31:44 -74.01, 60.84 88.72 11/10/2017 19:31:07 -74.00, 60.81 88.72 1.03 37
6 11/10/2017 20:21:12 74.06,-131.65 91.35 11/10/2017 20:21:45 74.09,-131.64 91.38 2.47 33
7 11/13/2017 15:05:59 -74.02, 127.24 87.94 11/13/2017 15:05:25 -74.04, 127.32 87.93 2.68 34
8 11/13/2017 15:55:27 74.09, -65.26 92.14 11/13/2017 15:56:04 74.07, -65.27 92.12 2.24 37
9 11/16/2017 10:40:13 -74.00,-166.26 87.25 11/16/2017 10:39:44 -74.02,-166.31 87.22 2.78 29
10 11/16/2017 11:29:41 74.07, 1.22 92.84 11/16/2017 11:30:22 74.10, 1.21 92.87 3.06 41




NCC Satellite Simultaneous Nadir Overpasses (SNOs) Prediction Service
